Location: Cerezo de Arriba
(41.2389°N, 3.5585°W)
Time: 04:37:22
(UTC+00:00)

Cosmos 836 Rocket - Pass Details

Date: 19 May 2025
Orbit: 754 x 773 km, 74.1° (Epoch: 23 June)

Event Time Altitude Azimuth Distance (km) Brightness Sun altitude
Exits shadow 21:27:47 25° 178° (S) 1,497 5.6 -18.1°
Maximum altitude 21:30:44 62° 106° (ESE) 849 4.4 -18.4°
Drops below altitude 10° 21:35:51 10° 26° (NNE) 2,287 7.3 -19.0°
Sets 21:38:14 0° 23° (NNE) 3,216 8.1 -19.3°
